| time (UTC) | temp C | wind direction | speed KPH | gust KPH | rain 1hr cm | rain 24hr cm | rain mn cm | humidity % | barometer mb |
| 20260510174418 | 25 | 0 | 3.2 | 4.8 | 0.00 | 0.00 | 0.00 | 50 | 1010.7 |
| 20260510173914 | 25 | 357 | 1.6 | 9.7 | 0.00 | 0.00 | 0.00 | 51 | 1010.7 |
| 20260510173409 | 25 | 335 | 1.6 | 4.8 | 0.00 | 0.00 | 0.00 | 50 | 1010.6 |
| 20260510172906 | 25 | 17 | 0.0 | 4.8 | 0.00 | 0.00 | 0.00 | 50 | 1010.6 |
| 20260510172402 | 24 | 41 | 1.6 | 6.4 | 0.00 | 0.00 | 0.00 | 49 | 1010.5 |
| 20260510171858 | 25 | 347 | 6.4 | 11.3 | 0.00 | 0.00 | 0.00 | 50 | 1010.7 |
| 20260510171355 | 25 | 13 | 4.8 | 6.4 | 0.00 | 0.00 | 0.00 | 49 | 1010.7 |
| 20260510170852 | 25 | 4 | 3.2 | 6.4 | 0.00 | 0.00 | 0.00 | 52 | 1010.5 |
| 20260510170349 | 25 | 248 | 3.2 | 3.2 | 0.00 | 0.00 | 0.00 | 55 | 1010.6 |
| 20260510165844 | 24 | 340 | 0.0 | 4.8 | 0.00 | 0.00 | 0.00 | 50 | 1010.7 |
| 20260510165341 | 23 | 322 | 1.6 | 4.8 | 0.00 | 0.00 | 0.00 | 51 | 1010.7 |
| 20260510164838 | 24 | 330 | 9.7 | 14.5 | 0.00 | 0.00 | 0.00 | 49 | 1010.9 |
| 20260510164335 | 24 | 345 | 1.6 | 3.2 | 0.00 | 0.00 | 0.00 | 50 | 1010.5 |
| 20260510163835 | 24 | 350 | 3.2 | 4.8 | 0.00 | 0.00 | 0.00 | 51 | 1010.6 |
| 20260510163332 | 24 | 322 | 3.2 | 4.8 | 0.00 | 0.00 | 0.00 | 51 | 1010.6 |
| 20260510162826 | 23 | 142 | 1.6 | 3.2 | 0.00 | 0.00 | 0.00 | 56 | 1010.7 |
| 20260510162323 | 23 | 190 | 1.6 | 3.2 | 0.00 | 0.00 | 0.00 | 53 | 1010.8 |
| 20260510161819 | 23 | 18 | 0.0 | 11.3 | 0.00 | 0.00 | 0.00 | 52 | 1010.9 |
| 20260510161315 | 22 | 356 | 1.6 | 4.8 | 0.00 | 0.00 | 0.00 | 57 | 1010.6 |
| 20260510160813 | 22 | 15 | 1.6 | 9.7 | 0.00 | 0.00 | 0.00 | 58 | 1010.9 |
| 20260510160309 | 22 | 354 | 3.2 | 4.8 | 0.00 | 0.00 | 0.00 | 59 | 1010.7 |
| 20260510155808 | 22 | 301 | 0.0 | 4.8 | 0.00 | 0.00 | 0.00 | 60 | 1010.5 |
| 20260510155306 | 22 | 114 | 3.2 | 6.4 | 0.00 | 0.00 | 0.00 | 60 | 1010.7 |
| 20260510154801 | 22 | 348 | 1.6 | 3.2 | 0.00 | 0.00 | 0.00 | 57 | 1010.9 |
| 20260510154257 | 22 | 184 | 1.6 | 4.8 | 0.00 | 0.00 | 0.00 | 57 | 1010.9 |
| 20260510153752 | 22 | 197 | 3.2 | 6.4 | 0.00 | 0.00 | 0.00 | 58 | 1010.9 |
| 20260510153248 | 22 | 35 | 0.0 | 9.7 | 0.00 | 0.00 | 0.00 | 60 | 1011.2 |
| 20260510152745 | 22 | 230 | 1.6 | 3.2 | 0.00 | 0.00 | 0.00 | 61 | 1010.8 |
| 20260510152242 | 22 | 186 | 1.6 | 4.8 | 0.00 | 0.00 | 0.00 | 61 | 1010.9 |
| 20260510151738 | 21 | 147 | 3.2 | 3.2 | 0.00 | 0.00 | 0.00 | 60 | 1010.9 |
| 20260510151237 | 21 | 345 | 4.8 | 9.7 | 0.00 | 0.00 | 0.00 | 60 | 1010.9 |
| 20260510150732 | 21 | 192 | 1.6 | 4.8 | 0.00 | 0.00 | 0.00 | 65 | 1011.1 |
| 20260510150228 | 21 | 340 | 3.2 | 6.4 | 0.00 | 0.00 | 0.00 | 65 | 1011.2 |
| 20260510145724 | 20 | 45 | 0.0 | 4.8 | 0.00 | 0.00 | 0.00 | 67 | 1011.1 |
| 20260510145221 | 20 | 1 | 4.8 | 9.7 | 0.00 | 0.00 | 0.00 | 67 | 1011.1 |
| 20260510144716 | 20 | 332 | 1.6 | 4.8 | 0.00 | 0.00 | 0.00 | 68 | 1011.2 |
| 20260510144214 | 20 | 4 | 3.2 | 4.8 | 0.00 | 0.00 | 0.00 | 68 | 1011.2 |
| 20260510143708 | 20 | 141 | 1.6 | 3.2 | 0.00 | 0.00 | 0.00 | 69 | 1010.9 |
| 20260510143205 | 20 | 351 | 1.6 | 6.4 | 0.00 | 0.00 | 0.00 | 71 | 1011.0 |
| 20260510142701 | 20 | 336 | 3.2 | 6.4 | 0.00 | 0.00 | 0.00 | 70 | 1011.0 |
| 20260510142158 | 19 | 60 | 0.0 | 3.2 | 0.00 | 0.00 | 0.00 | 75 | 1010.9 |
| 20260510141655 | 19 | 31 | 0.0 | 4.8 | 0.00 | 0.00 | 0.00 | 73 | 1011.1 |
| 20260510141154 | 18 | 350 | 1.6 | 4.8 | 0.00 | 0.00 | 0.00 | 76 | 1011.0 |
| 20260510140650 | 18 | 358 | 3.2 | 4.8 | 0.00 | 0.00 | 0.00 | 74 | 1011.2 |
| 20260510140149 | 18 | 15 | 1.6 | 3.2 | 0.00 | 0.00 | 0.00 | 77 | 1011.2 |
| 20260510135644 | 18 | 40 | 0.0 | 1.6 | 0.00 | 0.00 | 0.00 | 77 | 1010.9 |
| 20260510135140 | 18 | 115 | 1.6 | 3.2 | 0.00 | 0.00 | 0.00 | 75 | 1010.8 |
| 20260510134638 | 17 | 45 | 0.0 | 3.2 | 0.00 | 0.00 | 0.00 | 82 | 1011.0 |
| 20260510134135 | 16 | 7 | 1.6 | 3.2 | 0.00 | 0.00 | 0.00 | 82 | 1010.7 |
| 20260510133631 | 16 | 1 | 3.2 | 4.8 | 0.00 | 0.00 | 0.00 | 84 | 1011.0 |
| 20260510133126 | 16 | 56 | 0.0 | 1.6 | 0.00 | 0.00 | 0.00 | 86 | 1011.0 |
| 20260510132624 | 16 | 17 | 1.6 | 1.6 | 0.00 | 0.00 | 0.00 | 88 | 1010.7 |
| 20260510132121 | 16 | 29 | 0.0 | 0.0 | 0.00 | 0.00 | 0.00 | 92 | 1010.9 |
| 20260510131618 | 15 | 36 | 0.0 | 1.6 | 0.00 | 0.00 | 0.00 | 95 | 1010.9 |
| 20260510131115 | 14 | 32 | 1.6 | 1.6 | 0.00 | 0.00 | 0.00 | 96 | 1010.8 |
| 20260510130612 | 13 | 76 | 0.0 | 1.6 | 0.00 | 0.00 | 0.00 | 97 | 1010.9 |
| 20260510130109 | 14 | 165 | 1.6 | 3.2 | 0.00 | 0.00 | 0.00 | 98 | 1010.9 |
| 20260510125605 | 13 | 38 | 0.0 | 0.0 | 0.00 | 0.00 | 0.00 | 98 | 1011.1 |
| 20260510125102 | 13 | 22 | 0.0 | 0.0 | 0.00 | 0.00 | 0.00 | 98 | 1011.0 |
| 20260510124558 | 13 | 41 | 0.0 | 0.0 | 0.00 | 0.00 | 0.00 | 99 | 1010.9 |
| 20260510124055 | 12 | 61 | 0.0 | 1.6 | 0.00 | 0.00 | 0.00 | 99 | 1011.1 |
| 20260510123550 | 12 | 162 | 1.6 | 3.2 | 0.00 | 0.00 | 0.00 | 99 | 1010.9 |
| 20260510123047 | 12 | 9 | 0.0 | 1.6 | 0.00 | 0.00 | 0.00 | 99 | 1010.7 |
| 20260510122543 | 11 | 15 | 0.0 | 1.6 | 0.00 | 0.00 | 0.00 | 99 | 1010.8 |
| 20260510122039 | 11 | 21 | 0.0 | 0.0 | 0.00 | 0.00 | 0.00 | 99 | 1010.4 |
| 20260510121536 | 11 | 22 | 0.0 | 0.0 | 0.00 | 0.00 | 0.00 | 99 | 1010.7 |
| 20260510121034 | 11 | 28 | 0.0 | 0.0 | 0.00 | 0.00 | 0.00 | 99 | 1010.7 |
| 20260510120531 | 11 | 26 | 0.0 | 1.6 | 0.00 | 0.00 | 0.00 | 99 | 1010.4 |
| 20260510120027 | 11 | 58 | 0.0 | 3.2 | 0.00 | 0.00 | 0.00 | 99 | 1010.1 |
| 20260510115523 | 11 | 21 | 0.0 | 3.2 | 0.00 | 0.00 | 0.00 | 99 | 1010.5 |
| 20260510115020 | 11 | 36 | 0.0 | 1.6 | 0.00 | 0.00 | 0.00 | 99 | 1010.5 |
| 20260510114516 | 11 | 34 | 0.0 | 0.0 | 0.00 | 0.00 | 0.00 | 99 | 1010.3 |
| 20260510114012 | 11 | 37 | 0.0 | 1.6 | 0.00 | 0.00 | 0.00 | 99 | 1010.4 |
| 20260510113508 | 11 | 344 | 1.6 | 3.2 | 0.00 | 0.00 | 0.00 | 99 | 1010.2 |
| 20260510113006 | 11 | 27 | 1.6 | 1.6 | 0.00 | 0.00 | 0.00 | 99 | 1010.2 |
| 20260510112502 | 11 | 29 | 0.0 | 1.6 | 0.00 | 0.00 | 0.00 | 99 | 1010.1 |
| 20260510111958 | 11 | 55 | 0.0 | 1.6 | 0.00 | 0.00 | 0.00 | 99 | 1010.1 |
| 20260510111455 | 10 | 39 | 0.0 | 0.0 | 0.00 | 0.00 | 0.00 | 99 | 1010.2 |
| 20260510110951 | 10 | 23 | 0.0 | 1.6 | 0.00 | 0.00 | 0.00 | 99 | 1010.5 |
| 20260510110448 | 10 | 11 | 0.0 | 3.2 | 0.00 | 0.00 | 0.00 | 99 | 1010.1 |
| 20260510105943 | 10 | 25 | 0.0 | 0.0 | 0.00 | 0.00 | 0.00 | 99 | 1010.2 |
| 20260510105439 | 10 | 15 | 1.6 | 1.6 | 0.00 | 0.00 | 0.00 | 99 | 1010.1 |
| 20260510104934 | 10 | 349 | 1.6 | 1.6 | 0.00 | 0.00 | 0.00 | 99 | 1009.9 |
| 20260510104431 | 10 | 26 | 0.0 | 0.0 | 0.00 | 0.00 | 0.00 | 99 | 1009.8 |
| 20260510103927 | 10 | 34 | 0.0 | 0.0 | 0.00 | 0.00 | 0.00 | 99 | 1009.4 |
| 20260510103425 | 10 | 44 | 0.0 | 0.0 | 0.00 | 0.00 | 0.00 | 99 | 1009.8 |
| 20260510102920 | 10 | 28 | 0.0 | 0.0 | 0.00 | 0.00 | 0.00 | 99 | 1009.4 |
| 20260510102416 | 10 | 23 | 0.0 | 0.0 | 0.00 | 0.00 | 0.00 | 99 | 1009.7 |
| 20260510101913 | 10 | 23 | 0.0 | 0.0 | 0.00 | 0.00 | 0.00 | 99 | 1009.5 |
| 20260510101411 | 10 | 23 | 0.0 | 0.0 | 0.00 | 0.00 | 0.00 | 99 | 1009.6 |
| 20260510100908 | 10 | 26 | 0.0 | 0.0 | 0.00 | 0.00 | 0.00 | 99 | 1009.6 |
| 20260510100406 | 10 | 20 | 0.0 | 0.0 | 0.00 | 0.00 | 0.00 | 99 | 1009.5 |
| 20260510095902 | 10 | 355 | 1.6 | 1.6 | 0.00 | 0.00 | 0.00 | 99 | 1009.6 |
| 20260510095356 | 10 | 356 | 0.0 | 1.6 | 0.00 | 0.00 | 0.00 | 99 | 1009.3 |
| 20260510094856 | 10 | 40 | 0.0 | 0.0 | 0.00 | 0.00 | 0.00 | 99 | 1009.4 |
| 20260510094351 | 10 | 20 | 0.0 | 0.0 | 0.00 | 0.00 | 0.00 | 99 | 1009.3 |
| 20260510093848 | 10 | 30 | 0.0 | 0.0 | 0.00 | 0.00 | 0.00 | 99 | 1009.3 |
| 20260510093343 | 10 | 17 | 0.0 | 0.0 | 0.00 | 0.00 | 0.00 | 98 | 1009.5 |
| 20260510092840 | 10 | 29 | 0.0 | 0.0 | 0.00 | 0.00 | 0.00 | 99 | 1009.4 |
| 20260510092336 | 10 | 35 | 0.0 | 0.0 | 0.00 | 0.00 | 0.00 | 98 | 1009.6 |
| 20260510091832 | 10 | 22 | 0.0 | 0.0 | 0.00 | 0.00 | 0.00 | 98 | 1009.4 |
| 20260510091330 | 10 | 50 | 0.0 | 0.0 | 0.00 | 0.00 | 0.00 | 98 | 1009.5 |
| 20260510090826 | 10 | 32 | 0.0 | 0.0 | 0.00 | 0.00 | 0.00 | 98 | 1009.4 |
| 20260510090323 | 10 | 33 | 0.0 | 0.0 | 0.00 | 0.00 | 0.00 | 98 | 1009.4 |
| 20260510085818 | 10 | 30 | 0.0 | 3.2 | 0.00 | 0.00 | 0.00 | 98 | 1009.6 |
| 20260510085318 | 9 | 107 | 1.6 | 4.8 | 0.00 | 0.00 | 0.00 | 98 | 1009.3 |
| 20260510084814 | 9 | 328 | 3.2 | 4.8 | 0.00 | 0.00 | 0.00 | 98 | 1009.8 |
| 20260510084311 | 9 | 117 | 3.2 | 6.4 | 0.00 | 0.00 | 0.00 | 98 | 1009.3 |
| 20260510083808 | 9 | 69 | 1.6 | 3.2 | 0.00 | 0.00 | 0.00 | 98 | 1009.1 |
| 20260510083305 | 9 | 353 | 6.4 | 9.7 | 0.00 | 0.00 | 0.00 | 98 | 1009.6 |
| 20260510082800 | 9 | 44 | 4.8 | 11.3 | 0.00 | 0.00 | 0.00 | 98 | 1009.4 |
| 20260510082258 | 9 | 32 | 0.0 | 0.0 | 0.00 | 0.00 | 0.00 | 98 | 1008.9 |
| 20260510081756 | 9 | 33 | 0.0 | 0.0 | 0.00 | 0.00 | 0.00 | 98 | 1008.7 |
| 20260510081252 | 9 | 30 | 0.0 | 0.0 | 0.00 | 0.00 | 0.00 | 98 | 1008.9 |
| 20260510080748 | 9 | 30 | 0.0 | 0.0 | 0.00 | 0.00 | 0.00 | 98 | 1009.0 |
| 20260510080244 | 9 | 30 | 0.0 | 0.0 | 0.00 | 0.00 | 0.00 | 98 | 1008.7 |
| 20260510075741 | 9 | 30 | 0.0 | 0.0 | 0.00 | 0.00 | 0.00 | 98 | 1008.8 |
| 20260510075238 | 8 | 18 | 0.0 | 0.0 | 0.00 | 0.00 | 0.00 | 98 | 1008.7 |
| 20260510074735 | 8 | 47 | 0.0 | 0.0 | 0.00 | 0.00 | 0.00 | 98 | 1008.6 |
| 20260510074232 | 8 | 47 | 0.0 | 0.0 | 0.00 | 0.00 | 0.00 | 98 | 1008.8 |
| 20260510073728 | 8 | 74 | 0.0 | 0.0 | 0.00 | 0.00 | 0.00 | 98 | 1008.7 |
| 20260510073224 | 8 | 83 | 0.0 | 0.0 | 0.00 | 0.00 | 0.00 | 98 | 1008.8 |
| 20260510072720 | 8 | 75 | 0.0 | 0.0 | 0.00 | 0.00 | 0.00 | 98 | 1008.6 |
| 20260510072217 | 7 | 25 | 0.0 | 0.0 | 0.00 | 0.00 | 0.00 | 98 | 1008.9 |
| 20260510071714 | 7 | 29 | 0.0 | 0.0 | 0.00 | 0.00 | 0.00 | 98 | 1008.6 |
| 20260510071210 | 7 | 37 | 0.0 | 0.0 | 0.00 | 0.00 | 0.00 | 98 | 1008.6 |
| 20260510070708 | 7 | 37 | 0.0 | 0.0 | 0.00 | 0.00 | 0.00 | 98 | 1008.5 |
| 20260510070205 | 7 | 37 | 0.0 | 0.0 | 0.00 | 0.00 | 0.00 | 98 | 1008.3 |
| 20260510065700 | 7 | 37 | 0.0 | 0.0 | 0.00 | 0.00 | 0.00 | 98 | 1008.3 |
| 20260510065156 | 7 | 37 | 0.0 | 0.0 | 0.00 | 0.00 | 0.00 | 98 | 1008.2 |
| 20260510064653 | 8 | 37 | 0.0 | 0.0 | 0.00 | 0.00 | 0.00 | 98 | 1008.1 |
| 20260510064150 | 8 | 37 | 0.0 | 0.0 | 0.00 | 0.00 | 0.00 | 98 | 1008.0 |
| 20260510063647 | 8 | 37 | 0.0 | 0.0 | 0.00 | 0.00 | 0.00 | 98 | 1008.0 |
| 20260510063144 | 8 | 37 | 0.0 | 0.0 | 0.00 | 0.00 | 0.00 | 98 | 1008.2 |
| 20260510062640 | 8 | 37 | 0.0 | 0.0 | 0.00 | 0.00 | 0.00 | 98 | 1008.2 |
| 20260510062136 | 8 | 37 | 0.0 | 0.0 | 0.00 | 0.00 | 0.00 | 98 | 1008.1 |
| 20260510061631 | 8 | 37 | 0.0 | 0.0 | 0.00 | 0.00 | 0.00 | 98 | 1008.2 |
| 20260510061129 | 7 | 41 | 0.0 | 0.0 | 0.00 | 0.00 | 0.00 | 98 | 1008.2 |
| 20260510060625 | 7 | 41 | 0.0 | 0.0 | 0.00 | 0.00 | 0.00 | 98 | 1008.2 |
| 20260510060122 | 8 | 41 | 0.0 | 0.0 | 0.00 | 0.00 | 0.00 | 98 | 1008.2 |
| 20260510055618 | 8 | 41 | 0.0 | 0.0 | 0.00 | 0.00 | 0.00 | 98 | 1008.4 |
| 20260510055116 | 8 | 41 | 0.0 | 0.0 | 0.00 | 0.00 | 0.00 | 98 | 1008.4 |
| 20260510054611 | 8 | 41 | 0.0 | 0.0 | 0.00 | 0.00 | 0.00 | 98 | 1008.4 |
| 20260510054107 | 8 | 41 | 0.0 | 0.0 | 0.00 | 0.00 | 0.00 | 98 | 1008.3 |
| 20260510053606 | 8 | 41 | 0.0 | 0.0 | 0.00 | 0.00 | 0.00 | 98 | 1008.4 |
| 20260510053104 | 8 | 41 | 0.0 | 0.0 | 0.00 | 0.00 | 0.00 | 98 | 1008.4 |
| 20260510052559 | 8 | 41 | 0.0 | 0.0 | 0.00 | 0.00 | 0.00 | 98 | 1008.6 |
| 20260510052056 | 8 | 41 | 0.0 | 0.0 | 0.00 | 0.00 | 0.00 | 98 | 1008.7 |
| 20260510051551 | 8 | 41 | 0.0 | 0.0 | 0.00 | 0.00 | 0.00 | 98 | 1008.6 |
| 20260510051049 | 8 | 41 | 0.0 | 0.0 | 0.00 | 0.00 | 0.00 | 97 | 1008.7 |
| 20260510050546 | 8 | 41 | 0.0 | 0.0 | 0.00 | 0.00 | 0.00 | 97 | 1008.7 |
| 20260510050043 | 8 | 41 | 0.0 | 0.0 | 0.00 | 0.00 | 0.00 | 97 | 1008.7 |
| 20260510045540 | 8 | 41 | 0.0 | 0.0 | 0.00 | 0.00 | 0.00 | 97 | 1008.7 |
| 20260510045036 | 8 | 41 | 0.0 | 0.0 | 0.00 | 0.00 | 0.00 | 97 | 1008.7 |
| 20260510044533 | 9 | 41 | 0.0 | 0.0 | 0.00 | 0.00 | 0.00 | 97 | 1008.7 |
| 20260510044030 | 9 | 41 | 0.0 | 0.0 | 0.00 | 0.00 | 0.00 | 97 | 1008.7 |
| 20260510043526 | 9 | 41 | 0.0 | 0.0 | 0.00 | 0.00 | 0.00 | 98 | 1009.0 |
| 20260510043021 | 9 | 41 | 0.0 | 0.0 | 0.00 | 0.00 | 0.00 | 97 | 1008.6 |
| 20260510042516 | 9 | 41 | 0.0 | 0.0 | 0.00 | 0.00 | 0.00 | 97 | 1008.8 |
| 20260510042015 | 9 | 41 | 0.0 | 0.0 | 0.00 | 0.00 | 0.00 | 97 | 1008.9 |
| 20260510041514 | 10 | 41 | 0.0 | 0.0 | 0.00 | 0.00 | 0.00 | 97 | 1008.8 |
| 20260510041011 | 10 | 41 | 0.0 | 0.0 | 0.00 | 0.00 | 0.00 | 97 | 1009.1 |
| 20260510040507 | 10 | 41 | 0.0 | 0.0 | 0.00 | 0.00 | 0.00 | 97 | 1009.1 |
| 20260510040003 | 10 | 41 | 0.0 | 0.0 | 0.00 | 0.15 | 0.15 | 97 | 1009.0 |
| 20260510035500 | 10 | 41 | 0.0 | 0.0 | 0.00 | 0.15 | 0.15 | 97 | 1009.1 |
| 20260510034959 | 10 | 41 | 0.0 | 0.0 | 0.00 | 0.15 | 0.15 | 97 | 1009.0 |
| 20260510034458 | 10 | 41 | 0.0 | 0.0 | 0.00 | 0.15 | 0.15 | 97 | 1009.0 |
| 20260510033954 | 10 | 41 | 0.0 | 0.0 | 0.00 | 0.15 | 0.15 | 97 | 1008.9 |
| 20260510033450 | 10 | 41 | 0.0 | 0.0 | 0.00 | 0.15 | 0.15 | 97 | 1008.5 |
| 20260510032948 | 10 | 41 | 0.0 | 0.0 | 0.00 | 0.15 | 0.15 | 97 | 1008.5 |
| 20260510032445 | 9 | 41 | 0.0 | 0.0 | 0.00 | 0.15 | 0.15 | 97 | 1008.9 |
| 20260510031945 | 9 | 41 | 0.0 | 0.0 | 0.00 | 0.15 | 0.15 | 97 | 1008.5 |
| 20260510031441 | 9 | 41 | 0.0 | 0.0 | 0.00 | 0.15 | 0.15 | 97 | 1008.5 |
| 20260510030936 | 10 | 41 | 0.0 | 0.0 | 0.00 | 0.15 | 0.15 | 97 | 1008.5 |
| 20260510030432 | 10 | 41 | 0.0 | 0.0 | 0.00 | 0.15 | 0.15 | 97 | 1008.6 |
| 20260510025930 | 10 | 41 | 0.0 | 0.0 | 0.00 | 0.15 | 0.15 | 97 | 1008.4 |
| 20260510025427 | 10 | 41 | 0.0 | 0.0 | 0.00 | 0.15 | 0.15 | 97 | 1008.5 |
| 20260510024924 | 10 | 41 | 0.0 | 0.0 | 0.00 | 0.15 | 0.15 | 97 | 1008.4 |
| 20260510024420 | 10 | 41 | 0.0 | 0.0 | 0.00 | 0.15 | 0.15 | 96 | 1008.3 |
| 20260510023916 | 10 | 41 | 0.0 | 0.0 | 0.00 | 0.15 | 0.15 | 97 | 1008.4 |
| 20260510023413 | 11 | 41 | 0.0 | 0.0 | 0.00 | 0.15 | 0.15 | 97 | 1008.6 |
| 20260510022911 | 11 | 41 | 0.0 | 0.0 | 0.00 | 0.15 | 0.15 | 97 | 1008.5 |
| 20260510022409 | 10 | 41 | 0.0 | 0.0 | 0.00 | 0.15 | 0.15 | 97 | 1008.2 |
| 20260510021908 | 10 | 41 | 0.0 | 0.0 | 0.00 | 0.15 | 0.15 | 97 | 1008.7 |
| 20260510021407 | 10 | 41 | 0.0 | 0.0 | 0.00 | 0.15 | 0.15 | 96 | 1008.3 |
| 20260510020903 | 10 | 41 | 0.0 | 0.0 | 0.00 | 0.15 | 0.15 | 96 | 1008.5 |
| 20260510020358 | 10 | 41 | 0.0 | 0.0 | 0.00 | 0.15 | 0.15 | 96 | 1008.2 |
| 20260510015854 | 10 | 41 | 0.0 | 0.0 | 0.00 | 0.15 | 0.15 | 96 | 1008.2 |
| 20260510015350 | 10 | 41 | 0.0 | 0.0 | 0.00 | 0.15 | 0.15 | 96 | 1008.4 |
| 20260510014845 | 10 | 41 | 0.0 | 0.0 | 0.00 | 0.15 | 0.15 | 96 | 1008.3 |
| 20260510014343 | 10 | 41 | 0.0 | 0.0 | 0.00 | 0.15 | 0.15 | 96 | 1008.3 |
| 20260510013839 | 10 | 41 | 0.0 | 0.0 | 0.00 | 0.15 | 0.15 | 96 | 1008.3 |
| 20260510013334 | 10 | 41 | 0.0 | 0.0 | 0.00 | 0.15 | 0.15 | 96 | 1008.4 |
| 20260510012830 | 11 | 41 | 0.0 | 0.0 | 0.00 | 0.15 | 0.15 | 96 | 1008.4 |
| 20260510012329 | 10 | 41 | 0.0 | 0.0 | 0.00 | 0.15 | 0.15 | 96 | 1008.1 |
| 20260510011824 | 10 | 41 | 0.0 | 0.0 | 0.00 | 0.15 | 0.15 | 95 | 1008.2 |
| 20260510011320 | 10 | 41 | 0.0 | 0.0 | 0.00 | 0.15 | 0.15 | 95 | 1008.3 |
| 20260510010817 | 11 | 41 | 0.0 | 0.0 | 0.00 | 0.15 | 0.15 | 95 | 1008.0 |
| 20260510010314 | 11 | 41 | 0.0 | 0.0 | 0.00 | 0.15 | 0.15 | 95 | 1008.2 |
| 20260510005811 | 11 | 41 | 0.0 | 0.0 | 0.00 | 0.15 | 0.15 | 95 | 1008.2 |
| 20260510005307 | 11 | 41 | 0.0 | 0.0 | 0.00 | 0.15 | 0.15 | 95 | 1008.0 |
| 20260510004805 | 11 | 41 | 0.0 | 0.0 | 0.00 | 0.15 | 0.15 | 95 | 1007.9 |
| 20260510004302 | 11 | 42 | 0.0 | 0.0 | 0.00 | 0.15 | 0.15 | 94 | 1008.0 |
| 20260510003759 | 11 | 42 | 0.0 | 0.0 | 0.00 | 0.15 | 0.15 | 94 | 1007.9 |
| 20260510003256 | 12 | 42 | 0.0 | 0.0 | 0.00 | 0.15 | 0.15 | 94 | 1008.2 |
| 20260510002755 | 12 | 42 | 0.0 | 0.0 | 0.00 | 0.15 | 0.15 | 94 | 1007.9 |
| 20260510002253 | 12 | 42 | 0.0 | 0.0 | 0.00 | 0.15 | 0.15 | 94 | 1007.8 |
| 20260510001749 | 12 | 42 | 0.0 | 0.0 | 0.00 | 0.15 | 0.15 | 94 | 1007.9 |
| 20260510001247 | 12 | 42 | 0.0 | 0.0 | 0.00 | 0.15 | 0.15 | 94 | 1008.1 |
| 20260510000743 | 12 | 42 | 0.0 | 0.0 | 0.00 | 0.15 | 0.15 | 94 | 1007.8 |
| 20260510000241 | 12 | 42 | 0.0 | 0.0 | 0.00 | 0.15 | 0.15 | 93 | 1007.8 |
| 20260509235737 | 12 | 42 | 0.0 | 0.0 | 0.00 | 0.15 | 0.15 | 92 | 1007.8 |
| 20260509235234 | 12 | 42 | 0.0 | 0.0 | 0.00 | 0.15 | 0.15 | 92 | 1008.0 |
| 20260509234730 | 12 | 42 | 0.0 | 0.0 | 0.00 | 0.15 | 0.15 | 92 | 1007.8 |
| 20260509234227 | 13 | 34 | 0.0 | 0.0 | 0.00 | 0.15 | 0.15 | 91 | 1008.0 |
| 20260509233725 | 13 | 34 | 0.0 | 0.0 | 0.00 | 0.15 | 0.15 | 91 | 1007.8 |
| 20260509233222 | 13 | 34 | 0.0 | 0.0 | 0.00 | 0.15 | 0.15 | 90 | 1007.9 |
| 20260509232718 | 13 | 34 | 0.0 | 0.0 | 0.00 | 0.15 | 0.15 | 89 | 1007.8 |
| 20260509232216 | 13 | 34 | 0.0 | 0.0 | 0.00 | 0.15 | 0.15 | 89 | 1007.7 |
| 20260509231712 | 13 | 34 | 0.0 | 0.0 | 0.00 | 0.15 | 0.15 | 89 | 1007.4 |
| 20260509231209 | 14 | 33 | 0.0 | 0.0 | 0.00 | 0.15 | 0.15 | 88 | 1007.6 |
| 20260509230707 | 14 | 29 | 0.0 | 1.6 | 0.00 | 0.15 | 0.15 | 88 | 1007.6 |
| 20260509230203 | 14 | 23 | 0.0 | 1.6 | 0.00 | 0.15 | 0.15 | 88 | 1007.8 |
| 20260509225659 | 14 | 51 | 0.0 | 0.0 | 0.00 | 0.15 | 0.15 | 89 | 1007.7 |
| 20260509225154 | 14 | 35 | 0.0 | 0.0 | 0.00 | 0.15 | 0.15 | 89 | 1007.8 |
| 20260509224650 | 14 | 24 | 0.0 | 0.0 | 0.00 | 0.15 | 0.15 | 90 | 1007.8 |
| 20260509224148 | 14 | 28 | 0.0 | 0.0 | 0.00 | 0.15 | 0.15 | 90 | 1007.9 |
| 20260509223644 | 14 | 38 | 0.0 | 0.0 | 0.00 | 0.15 | 0.15 | 90 | 1007.7 |
| 20260509223141 | 13 | 32 | 0.0 | 0.0 | 0.00 | 0.15 | 0.15 | 91 | 1007.7 |
| 20260509222639 | 13 | 62 | 0.0 | 1.6 | 0.00 | 0.15 | 0.15 | 91 | 1007.7 |
| 20260509222134 | 13 | 39 | 0.0 | 0.0 | 0.00 | 0.15 | 0.15 | 91 | 1007.6 |
| 20260509221630 | 13 | 38 | 0.0 | 0.0 | 0.00 | 0.15 | 0.15 | 91 | 1007.7 |
| 20260509221126 | 13 | 47 | 0.0 | 0.0 | 0.00 | 0.15 | 0.15 | 90 | 1007.8 |
| 20260509220622 | 13 | 48 | 0.0 | 0.0 | 0.00 | 0.15 | 0.15 | 91 | 1007.6 |
| 20260509220118 | 13 | 50 | 0.0 | 0.0 | 0.00 | 0.15 | 0.15 | 91 | 1007.9 |
| 20260509215614 | 13 | 24 | 0.0 | 1.6 | 0.00 | 0.15 | 0.15 | 90 | 1007.8 |
| 20260509215111 | 13 | 43 | 0.0 | 0.0 | 0.00 | 0.15 | 0.15 | 90 | 1007.7 |
| 20260509214608 | 13 | 43 | 0.0 | 0.0 | 0.00 | 0.15 | 0.15 | 89 | 1007.9 |
| 20260509214105 | 13 | 43 | 0.0 | 0.0 | 0.00 | 0.15 | 0.15 | 89 | 1007.9 |
| 20260509213601 | 13 | 43 | 0.0 | 0.0 | 0.00 | 0.15 | 0.15 | 88 | 1008.0 |
| 20260509213058 | 13 | 43 | 0.0 | 0.0 | 0.00 | 0.15 | 0.15 | 88 | 1008.1 |
| 20260509212555 | 13 | 23 | 0.0 | 1.6 | 0.00 | 0.15 | 0.15 | 88 | 1008.2 |
| 20260509212052 | 13 | 48 | 0.0 | 0.0 | 0.00 | 0.15 | 0.15 | 90 | 1008.2 |
| 20260509211548 | 13 | 58 | 0.0 | 1.6 | 0.00 | 0.15 | 0.15 | 89 | 1008.1 |
| 20260509211044 | 13 | 28 | 0.0 | 0.0 | 0.00 | 0.15 | 0.15 | 90 | 1008.0 |
| 20260509210542 | 13 | 29 | 0.0 | 1.6 | 0.00 | 0.15 | 0.15 | 89 | 1007.9 |
| 20260509210038 | 13 | 23 | 0.0 | 3.2 | 0.89 | 0.15 | 0.15 | 88 | 1008.0 |
| 20260509205538 | 13 | 28 | 3.2 | 3.2 | 0.89 | 0.15 | 0.15 | 86 | 1008.1 |
| 20260509205033 | 13 | 30 | 0.0 | 1.6 | 0.00 | 0.00 | 0.00 | 85 | 1008.1 |
| 20260509204530 | 13 | 7 | 0.0 | 3.2 | 0.00 | 0.00 | 0.00 | 84 | 1008.2 |
| 20260509204026 | 13 | 355 | 1.6 | 3.2 | 0.00 | 0.00 | 0.00 | 83 | 1007.7 |
| 20260509203522 | 13 | 25 | 1.6 | 1.6 | 0.00 | 0.00 | 0.00 | 83 | 1007.8 |
| 20260509203021 | 14 | 9 | 3.2 | 4.8 | 0.00 | 0.00 | 0.00 | 82 | 1007.7 |
| 20260509202515 | 14 | 16 | 1.6 | 3.2 | 0.00 | 0.00 | 0.00 | 83 | 1008.1 |
| 20260509202010 | 14 | 356 | 1.6 | 4.8 | 0.00 | 0.00 | 0.00 | 81 | 1007.9 |
| 20260509201506 | 14 | 40 | 0.0 | 3.2 | 0.00 | 0.00 | 0.00 | 83 | 1007.9 |
| 20260509201004 | 14 | 10 | 3.2 | 4.8 | 0.00 | 0.00 | 0.00 | 84 | 1007.7 |
| 20260509200503 | 13 | 22 | 1.6 | 3.2 | 0.00 | 0.00 | 0.00 | 84 | 1007.6 |
| 20260509200000 | 14 | 342 | 3.2 | 9.7 | 0.00 | 0.00 | 0.00 | 83 | 1008.1 |
| 20260509195456 | 14 | 335 | 8.0 | 9.7 | 0.00 | 0.00 | 0.00 | 82 | 1008.1 |
| 20260509194955 | 14 | 335 | 6.4 | 12.9 | 0.00 | 0.00 | 0.00 | 80 | 1008.2 |
| 20260509194451 | 14 | 20 | 1.6 | 6.4 | 0.00 | 0.00 | 0.00 | 80 | 1008.0 |
| 20260509193948 | 14 | 36 | 3.2 | 6.4 | 0.00 | 0.00 | 0.00 | 80 | 1008.2 |
| 20260509193448 | 14 | 41 | 3.2 | 6.4 | 0.00 | 0.00 | 0.00 | 81 | 1008.3 |
| 20260509192944 | 14 | 33 | 1.6 | 3.2 | 0.00 | 0.00 | 0.00 | 81 | 1008.1 |
| 20260509192442 | 14 | 43 | 3.2 | 4.8 | 0.00 | 0.00 | 0.00 | 82 | 1008.3 |
| 20260509191937 | 14 | 338 | 4.8 | 4.8 | 0.00 | 0.00 | 0.00 | 83 | 1008.3 |
| 20260509191432 | 14 | 357 | 1.6 | 9.7 | 0.00 | 0.00 | 0.00 | 83 | 1008.6 |
| 20260509190928 | 14 | 345 | 1.6 | 4.8 | 0.00 | 0.00 | 0.00 | 83 | 1008.8 |
| 20260509190426 | 14 | 2 | 3.2 | 4.8 | 0.00 | 0.00 | 0.00 | 83 | 1008.7 |
| 20260509185923 | 14 | 8 | 1.6 | 6.4 | 0.00 | 0.00 | 0.00 | 82 | 1008.7 |
| 20260509185420 | 14 | 6 | 4.8 | 9.7 | 0.00 | 0.00 | 0.00 | 80 | 1008.7 |
| 20260509184917 | 15 | 315 | 4.8 | 9.7 | 0.00 | 0.00 | 0.00 | 79 | 1008.7 |
| 20260509184414 | 15 | 302 | 4.8 | 6.4 | 0.00 | 0.00 | 0.00 | 80 | 1008.8 |
| 20260509183911 | 15 | 341 | 6.4 | 9.7 | 0.00 | 0.00 | 0.00 | 80 | 1008.6 |
| 20260509183405 | 15 | 329 | 1.6 | 11.3 | 0.00 | 0.00 | 0.00 | 79 | 1008.8 |
| 20260509182902 | 15 | 7 | 1.6 | 6.4 | 0.00 | 0.00 | 0.00 | 79 | 1008.7 |
| 20260509182359 | 15 | 336 | 3.2 | 9.7 | 0.00 | 0.00 | 0.00 | 78 | 1009.0 |
| 20260509181856 | 15 | 321 | 4.8 | 6.4 | 0.00 | 0.00 | 0.00 | 76 | 1009.0 |
| 20260509181353 | 15 | 21 | 3.2 | 11.3 | 0.00 | 0.00 | 0.00 | 76 | 1008.8 |
| 20260509180851 | 15 | 7 | 3.2 | 6.4 | 0.00 | 0.00 | 0.00 | 74 | 1009.0 |
| 20260509180346 | 15 | 349 | 3.2 | 9.7 | 0.00 | 0.00 | 0.00 | 74 | 1009.0 |
| 20260509175843 | 15 | 336 | 3.2 | 6.4 | 0.00 | 0.00 | 0.00 | 72 | 1009.0 |
| 20260509175340 | 15 | 18 | 3.2 | 6.4 | 0.00 | 0.00 | 0.00 | 72 | 1009.0 |
| 20260509174835 | 15 | 315 | 1.6 | 3.2 | 0.00 | 0.00 | 0.00 | 71 | 1008.9 |